Weather History for LIRE - November, 2011

Change the Weather History Date:

Wednesday, November 30, 2011

  Actual Average Record
Temperature  
Mean Temperature 54 °F -  
Max Temperature 63 °F 57 °F 72 °F (2014)
Min Temperature 44 °F 42 °F 36 °F (2013)
Degree Days  
Heating Degree Days 12    
Growing Degree Days 4 (Base 50)    
Moisture  
Dew Point 45 °F    
Average Humidity 74    
Maximum Humidity 93    
Minimum Humidity 43    
Precipitation  
Precipitation 0.00 in 0.14 in - ()
Sea Level Pressure  
Sea Level Pressure 30.30 in    
Wind  
Wind Speed 5 mph ()    
Max Wind Speed 10 mph    
Max Gust Speed -    
Visibility 8.7 miles    
Events      
Averages and records for this station are not official NWS values.
T = Trace of Precipitation, MM = Missing Value Source: Averaged Metar Reports

Daily Weather History Graph

Daily Weather History Graph

Search for Another Location

Airport or City:

Trip Planner

Search our weather history database for the weather conditions in past years. The results will help you decide how hot, cold, wet, or windy it might be!

Date:

Astronomy

Nov. 30, 2011 Rise Set
Actual Time 7:16 AM CET 4:41 PM CET
Civil Twilight 6:45 AM CET 5:12 PM CET
Nautical Twilight 6:10 AM CET 5:46 PM CET
Astronomical Twilight 5:37 AM CET 6:19 PM CET
Moon 11:23 AM CET (11/30) 10:23 PM CET (11/30)
Length of Visible Light 10h 26m
Length of Day
9h 25m
Waxing Crescent, 31% of the Moon is Illuminated
Nov 30
Waxing Crescent
Dec 2
First Quarter
Dec 10
Full
Dec 18
Last Quarter
Dec 24
New

Hourly Weather History & Observations

Time (CET) Temp. Dew Point Humidity Pressure Visibility Wind Dir Wind Speed Gust Speed Precip Events Conditions
12:55 AM 48.2 °F 46.4 °F 93% 30.24 in - North - - N/A   Clear
1:00 AM 48 °F 46 °F 89% 30.26 in 6 mi North 2.3 mph - -  
2:55 AM 46.4 °F 44.6 °F 93% 30.24 in - North - - N/A   Clear
3:55 AM 46.4 °F 44.6 °F 93% 30.24 in - North - - N/A   Clear
4:00 AM 47 °F 44 °F 86% 30.26 in 6 mi North 5.8 mph - -  
5:55 AM 46.4 °F 39.2 °F 76% 30.27 in - North - - N/A   Clear
6:55 AM 46.4 °F 39.2 °F 76% 30.27 in - North - - N/A   Clear
7:00 AM 46 °F 39 °F 69% 30.30 in 6 mi NNE 9.2 mph - -  
7:55 AM 46.4 °F 39.2 °F 76% 30.30 in - North - - N/A   Clear
8:55 AM 48.2 °F 41.0 °F 76% 30.33 in - North - - N/A   Clear
9:55 AM 51.8 °F 42.8 °F 71% 30.33 in - North - - N/A   Clear
10:00 AM 52 °F 42 °F 60% 30.35 in 6 mi North 4.6 mph - -  
10:55 AM 59.0 °F 42.8 °F 55% 30.33 in - North - - N/A   Clear
11:55 AM 60.8 °F 46.4 °F 59% 30.30 in - North - - N/A   Clear
12:55 PM 62.6 °F 44.6 °F 52% 30.30 in - North - - N/A   Clear
1:00 PM 62 °F 45 °F 43% 30.32 in 19 mi NNW 10.4 mph - -  
1:55 PM 62.6 °F 44.6 °F 52% 30.30 in - North - - N/A   Clear
3:55 PM 60.8 °F 50.0 °F 68% 30.30 in - North - - N/A   Clear
4:00 PM 61 °F 50 °F 59% 30.31 in 22 mi West 9.2 mph - -  
4:55 PM 57.2 °F 50.0 °F 77% 30.30 in - North - - N/A   Clear
5:55 PM 53.6 °F 50.0 °F 88% 30.30 in - North - - N/A   Clear
6:55 PM 53.6 °F 48.2 °F 82% 30.33 in - North - - N/A   Clear
7:00 PM 53 °F 49 °F 81% 30.33 in 9 mi NNW 6.9 mph - -  
7:55 PM 51.8 °F 48.2 °F 88% 30.33 in - North - - N/A   Clear
8:55 PM 50.0 °F 44.6 °F 82% 30.33 in - North - - N/A   Clear
10:55 PM 50.0 °F 44.6 °F 82% 30.33 in - North - - N/A   Clear
11:55 PM 50.0 °F 42.8 °F 76% 30.36 in - North - - N/A   Clear